Theta_e
314 314 314 314 316 310 310 315 313 314 315 319 318 318 317 317 319 319 318 318 319 318 317 314 313 313 313 312 314 317 319 320 320 320 320 321 326 327 327 329 329 331 331 331
315 314 310 311 314 315 311 312 313 315 316 317 315 316 316 316 316 316 316 316 316 316 316 315 315 313 312 312 313 318 318 319 320 320 319 319 320 323 327 328 329 330 331 332
312 311 311 312 313 315 315 313 311 310 316 316 317 314 314 315 315 315 315 315 315 315 315 314 314 311 312 317 316 316 316 318 319 319 319 319 319 321 325 327 328 329 330 331
313 311 312 312 310 312 311 313 314 313 313 310 313 309 311 310 312 314 314 314 314 314 314 314 315 316 315 317 318 318 319 318 317 317 317 318 318 320 325 327 328 329 330 331
313 313 312 313 312 312 311 313 315 314 314 313 312 313 310 313 311 313 315 316 316 316 316 315 316 316 317 317 317 317 317 317 318 319 318 318 319 321 326 327 327 329 330 330
312 311 312 312 312 313 313 315 316 316 316 316 311 312 311 311 311 312 315 315 315 315 314 315 315 315 316 317 317 318 318 318 319 318 318 319 322 324 327 327 328 329 330 331
313 312 311 310 312 313 314 315 315 316 316 315 310 312 311 311 311 311 313 314 313 314 314 313 313 312 315 317 319 320 320 320 320 320 323 325 326 328 329 329 329 329 330 330
314 314 313 311 311 313 314 313 312 311 313 312 312 312 312 312 311 311 312 312 313 312 312 309 309 312 315 319 320 322 323 323 324 325 326 327 327 327 327 327 327 327 327 327
313 312 311 312 311 312 313 314 310 308 309 313 311 312 311 312 312 311 314 312 312 309 306 307 308 310 312 315 316 318 319 321 322 322 323 324 325 325 325 326 326 326 326 326
311 312 310 311 312 311 313 312 313 313 311 311 309 310 311 313 313 313 313 313 311 306 305 305 304 304 304 305 306 307 309 310 311 313 315 316 317 318 318 317 318 316 315 313
310 311 310 311 313 314 312 314 313 312 312 311 309 309 309 310 312 314 314 313 309 305 303 302 301 301 301 301 301 301 301 301 302 302 302 301 302 302 302 302 302 301 301 301
311 310 312 311 311 312 313 313 314 314 313 312 311 311 310 311 311 312 312 311 306 303 301 301 301 299 299 299 299 300 300 300 300 300 299 299 299 299 299 299 300 300 300 300
311 309 313 311 310 309 313 314 313 313 312 315 315 312 311 310 310 309 309 306 303 300 298 299 299 299 299 299 300 300 300 300 300 300 300 300 300 300 300 300 300 300 300 300
310 311 311 312 311 311 312 313 313 314 315 313 314 312 312 310 311 307 306 303 301 299 297 296 297 297 298 298 298 299 299 300 301 301 300 300 300 301 300 300 300 300 300 299
310 311 311 311 310 309 311 312 313 314 314 314 314 313 313 312 310 307 305 302 299 298 297 295 295 295 295 296 297 297 298 298 299 300 300 299 299 301 299 298 298 298 297 298
310 313 311 310 310 310 310 311 311 312 313 314 313 312 312 311 309 307 303 301 299 298 295 294 295 295 295 295 296 296 295 295 295 297 298 297 296 297 297 296 295 295 295 294
309 310 311 312 310 310 309 309 311 311 311 312 313 312 311 309 307 305 303 301 299 295 292 293 293 293 293 293 293 293 294 295 296 295 295 294 293 293 292 292 292 293 293 294
308 309 310 312 310 312 310 309 308 310 311 311 311 311 311 311 305 304 303 300 297 292 290 290 291 291 292 292 292 292 292 292 292 291 291 290 291 290 291 291 291 291 291 291
307 309 311 312 311 310 308 305 308 309 309 309 310 310 310 297 295 292 296 295 292 289 289 290 290 291 291 290 290 290 290 290 290 289 289 289 289 289 288 288 288 288 287 287
306 308 309 309 310 311 309 305 304 308 309 308 308 309 304 296 305 308 291 293 292 291 290 289 288 288 288 288 288 288 288 288 288 288 287 287 286 285 285 285 285 285 285 285
308 308 310 311 310 310 308 297 303 309 309 306 307 307 297 302 303 298 290 288 289 288 287 286 286 286 286 286 286 286 286 287 286 285 284 284 284 284 284 284 283 284 284 284
308 309 311 310 311 310 296 297 307 302 291 292 295 300 296 293 288 285 283 285 284 285 285 284 285 285 284 285 285 285 285 284 284 283 283 283 282 282 282 282 282 281 281 282
308 308 310 310 308 289 287 288 287 288 288 287 290 291 291 286 283 281 282 282 283 284 284 284 284 284 284 283 282 282 282 282 282 282 281 281 281 281 281 281 281 280 280 280
299 296 303 301 292 288 284 283 286 288 289 290 291 290 289 287 283 282 281 281 282 282 282 282 283 282 281 280 281 281 281 281 281 280 280 280 280 279 279 279 278 277 276 276
298 297 296 295 285 283 283 283 286 286 286 287 287 287 286 285 280 281 279 280 280 281 281 281 281 280 279 279 279 279 279 279 279 278 278 277 277 277 278 278 277 276 275 274
293 296 301 304 290 291 289 286 284 284 284 284 285 282 282 283 281 280 280 280 280 280 280 279 279 279 279 278 278 278 277 277 276 276 276 277 277 277 276 275 275 275 274 273
Wind_Speed
16 8 17 20 20 8 9 13 11 6 4 8 18 23 21 22 22 21 22 21 23 26 26 32 33 33 33 30 29 30 30 27 24 23 23 25 28 30 31 30 31 29 28 27
9 21 14 11 16 18 8 11 11 3 4 6 13 23 22 24 28 31 31 30 30 29 31 29 26 27 29 28 30 29 28 27 27 26 26 27 26 28 30 31 30 28 28 28
19 4 22 14 16 18 19 18 10 5 2 9 11 22 24 19 32 33 31 30 29 32 33 30 25 25 25 25 25 27 27 25 26 27 28 29 29 28 28 29 28 27 26 26
16 20 14 17 22 19 19 14 15 11 5 8 2 12 15 5 8 10 22 24 26 24 22 21 21 21 24 24 23 22 23 25 28 31 32 31 30 28 24 24 26 24 22 20
11 13 17 20 17 19 10 9 14 16 14 11 17 8 9 3 9 10 14 17 16 14 13 12 13 14 16 18 21 23 26 27 27 29 30 29 28 25 20 19 23 22 19 16
17 7 19 14 11 19 8 10 8 7 8 9 19 15 19 17 12 13 15 14 13 10 10 12 11 11 12 13 15 17 19 21 22 23 22 22 21 19 17 16 16 17 17 16
15 11 5 14 13 14 16 15 6 6 7 11 4 11 21 4 6 9 13 14 9 10 10 10 10 9 9 9 10 11 12 13 14 15 15 15 16 15 13 12 12 12 12 12
14 11 18 13 15 11 23 20 8 10 10 10 9 13 9 3 24 21 15 16 12 8 11 12 11 9 9 9 8 6 7 9 10 11 12 13 14 14 14 14 14 14 15 16
16 18 8 14 13 18 18 20 17 9 2 3 10 13 13 11 10 12 15 14 13 12 13 15 16 15 14 13 12 11 10 10 11 11 10 10 11 13 13 13 15 16 16 16
9 10 10 18 16 20 13 17 11 11 8 12 13 16 14 6 13 17 14 14 14 17 19 20 19 19 18 17 17 16 15 15 14 13 12 10 10 8 8 7 8 9 9 9
13 12 4 14 20 21 9 14 11 9 11 8 9 12 17 19 15 12 16 20 20 22 21 21 20 20 19 19 18 16 15 15 14 13 12 11 9 8 6 5 4 3 3 5
27 11 12 18 11 18 24 22 25 9 15 16 14 15 6 2 8 15 10 16 21 22 23 24 23 21 18 17 16 14 13 11 10 9 7 6 5 4 2 2 3 5 7 9
18 9 6 5 5 7 19 20 20 18 4 14 12 13 11 9 2 6 15 21 23 23 22 22 21 20 19 16 14 11 8 6 5 4 1 3 5 6 7 9 12 14 14 16
22 18 21 19 20 13 17 27 22 24 14 16 17 21 20 9 14 13 18 22 24 24 23 21 20 18 17 16 14 11 8 4 4 6 7 7 10 14 16 15 16 20 22 21
15 15 25 26 23 11 19 23 29 24 25 19 23 23 24 22 11 20 25 25 25 25 23 22 21 17 14 12 10 7 6 6 5 8 10 13 14 16 20 18 21 21 20 23
22 6 14 22 25 21 13 20 23 28 30 27 23 21 26 32 14 22 27 30 29 27 24 24 21 18 14 11 9 8 5 3 3 8 10 11 13 14 16 18 18 20 20 20
18 12 10 21 26 22 15 18 22 25 29 29 26 28 28 14 16 25 29 31 30 27 26 24 21 18 15 11 7 5 4 5 6 7 8 9 10 10 11 13 15 17 18 19
8 6 8 9 10 18 12 22 24 22 22 28 21 20 28 27 16 16 24 32 29 28 27 24 20 16 12 10 7 6 4 3 4 5 6 8 10 12 14 16 19 21 21 23
15 10 6 4 12 12 8 13 28 22 31 26 24 30 17 8 12 10 23 23 27 28 26 22 19 15 12 10 7 5 4 3 3 4 7 9 12 15 17 20 22 25 28 29
17 17 11 3 8 11 20 7 16 18 16 26 29 28 16 22 10 11 27 30 29 26 23 20 17 14 11 8 7 5 3 1 3 6 9 13 16 19 21 23 26 28 30 32
8 14 18 18 8 4 11 6 14 11 11 9 28 35 28 15 9 18 33 29 27 24 21 18 16 13 11 8 5 3 1 2 5 9 12 15 19 22 25 27 30 32 34 36
13 9 11 17 13 13 11 7 18 5 3 6 10 17 27 19 20 26 28 29 27 24 21 18 16 13 10 7 5 3 1 4 7 11 14 17 21 24 28 31 33 36 38 41
4 8 5 7 6 4 3 2 5 5 6 7 14 19 29 27 26 27 29 27 25 23 21 19 16 13 10 6 4 2 4 7 11 14 17 20 23 25 27 30 32 34 36 39
2 2 3 2 4 4 7 8 6 7 11 14 15 23 28 31 31 30 29 29 27 24 21 19 17 13 8 5 3 5 8 12 15 18 20 22 24 25 26 29 31 33 34 37
2 7 7 3 3 3 13 14 11 13 15 19 21 24 25 28 28 29 27 25 24 24 22 19 15 11 6 3 5 9 12 15 16 18 20 22 24 26 28 28 30 31 32 33
5 5 6 4 7 1 2 25 21 19 20 21 26 25 23 25 27 27 26 25 23 20 17 14 10 6 3 5 8 11 13 15 16 18 21 22 24 26 27 30 33 31 34 35
Wind_Direction
185 200 207 203 209 222 223 215 219 210 201 224 240 257 257 250 250 249 248 250 255 257 261 260 260 262 268 265 259 251 254 258 255 253 258 259 257 253 252 255 261 260 257 257
186 226 207 214 215 217 210 218 226 234 223 226 259 262 264 258 252 248 249 251 256 264 266 263 264 264 266 261 253 252 252 250 249 252 262 264 263 260 256 254 257 260 260 261
209 174 198 184 199 211 225 229 214 236 154 235 283 272 256 250 250 248 250 252 253 253 259 264 264 264 256 258 254 255 256 255 255 258 261 259 255 259 258 253 252 253 255 259
229 222 195 206 219 204 226 223 229 219 233 254 187 282 263 193 223 227 235 241 240 244 251 261 263 258 253 257 261 259 259 258 257 255 253 253 256 255 258 256 255 257 257 256
211 187 194 207 211 200 238 181 202 212 231 267 241 267 257 191 241 221 224 223 225 236 244 254 256 258 258 257 258 255 254 251 256 254 246 245 245 247 249 253 255 258 260 260
216 210 201 210 196 190 144 135 149 197 223 244 234 226 261 242 234 219 204 222 217 219 236 245 255 250 250 250 251 252 248 248 251 246 241 236 240 244 249 255 260 261 256 253
215 192 190 197 180 187 183 167 172 205 210 240 208 217 248 291 325 241 227 226 229 223 213 210 214 222 225 224 221 227 232 236 233 224 217 218 225 230 238 245 254 256 264 262
203 205 202 185 194 180 200 190 191 213 223 250 164 233 241 218 222 237 222 241 213 199 194 187 176 168 166 169 171 184 202 205 204 207 207 210 220 226 230 235 241 243 245 245
206 225 186 188 190 168 201 212 220 268 84 259 223 250 283 237 243 235 229 229 231 173 159 161 151 148 147 151 152 158 156 155 163 157 166 189 203 217 226 231 241 244 247 249
204 222 190 193 198 213 195 194 196 218 224 231 247 251 252 199 225 229 226 217 177 161 160 154 152 147 141 134 126 127 126 124 124 129 143 150 162 173 194 196 219 229 236 246
218 226 143 162 203 188 182 194 217 223 229 229 253 244 242 242 233 218 226 219 179 164 157 158 152 147 143 140 137 134 131 128 127 125 122 123 123 127 133 149 164 199 248 273
211 233 222 203 213 219 204 203 194 192 206 226 244 252 132 168 245 248 233 174 168 164 163 163 161 155 148 143 140 141 139 139 134 131 133 139 143 152 175 246 266 281 290 297
183 208 193 184 237 228 223 216 215 227 267 215 216 249 263 207 149 190 167 166 164 161 163 162 159 160 161 160 158 154 152 154 154 153 202 297 284 276 280 291 294 290 290 296
189 219 217 220 214 181 202 214 211 211 216 225 222 244 247 228 224 168 167 171 167 165 166 167 167 170 171 170 170 170 170 189 244 273 283 279 288 295 296 292 296 300 299 299
202 221 218 232 245 233 206 212 211 213 220 221 231 227 251 249 204 190 178 169 172 173 174 176 177 179 180 182 185 194 206 211 236 267 277 291 298 288 298 305 303 298 301 303
210 217 207 225 234 233 226 216 213 215 220 226 238 243 244 255 222 182 184 179 182 181 177 182 183 188 192 198 201 208 210 225 259 255 267 279 289 293 295 301 303 306 314 318
198 213 201 232 225 224 227 219 212 218 220 224 224 232 243 231 206 193 193 192 185 182 183 185 189 193 196 200 201 204 217 240 260 276 281 288 298 309 314 320 320 320 325 325
186 185 209 213 174 228 225 225 223 225 225 227 227 233 242 233 206 199 201 192 183 180 184 188 192 195 198 204 210 216 233 263 285 296 312 325 331 332 333 332 331 329 329 330
202 207 227 243 231 261 267 216 209 202 232 227 222 233 227 134 147 203 195 181 179 182 186 189 194 199 200 204 205 208 222 244 285 316 326 333 337 336 336 334 333 331 329 330
211 200 219 211 231 234 236 202 198 199 239 228 219 229 186 151 193 212 184 189 185 185 188 190 192 193 194 194 194 196 195 250 332 335 339 340 339 336 334 332 329 327 325 323
187 200 215 213 230 254 248 139 151 165 230 212 211 220 175 192 222 183 173 174 182 183 184 186 186 188 188 184 174 170 158 331 337 338 336 335 333 331 328 327 325 323 321 319
189 187 226 218 217 233 152 123 181 197 75 164 164 179 177 173 141 149 159 166 171 175 177 179 180 178 172 168 169 180 258 321 325 326 327 327 326 325 324 323 323 322 321 320
198 195 182 217 203 354 210 130 204 186 153 177 162 166 167 153 151 154 158 165 169 173 173 173 173 173 173 170 180 242 302 314 317 321 322 321 320 320 321 322 323 323 324 324
163 242 180 152 186 206 247 242 205 194 182 172 165 165 173 162 160 158 160 163 166 167 166 166 166 167 173 188 248 296 313 317 318 319 321 322 324 325 327 329 330 329 329 326
141 154 163 252 232 292 246 220 199 176 165 157 158 163 164 162 155 157 157 160 161 163 163 164 165 170 184 231 296 307 310 314 317 321 325 328 329 330 329 329 329 328 328 325
200 166 193 238 160 58 237 194 181 173 164 160 159 157 159 167 161 161 157 161 160 160 159 161 165 180 226 278 296 307 314 315 319 328 328 329 328 328 329 330 329 330 330 327